Regional Weather Roundup
Issued by NWS

Home | Current Version | Previous Version | Text Only | Print | Product List | Glossary On
Versions: 1 2 3 4 5 6 7 8 9 10 11 12 13 14 15 16 17 18 19 20 21 22 23 24 25 26 27 28 29 30 31 32 33 34 35 36 37 38 39 40 41 42 43 44 45 46 47 48 49 50
000
ASUS46 KSEW 231510
RWRWA

WASHINGTON REGIONAL WEATHER ROUNDUP
NATIONAL WEATHER SERVICE SEATTLE WA
800 AM PDT SAT JUL 23 2016

NOTE:"FAIR" INDICATES FEW OR NO CLOUDS BELOW 12,000 FEET WITH NO
SIGNIFICANT WEATHER AND/OR OBSTRUCTIONS TO VISIBILITY.

WAZ505-507>509-231600-
SEATTLE, TACOMA, EVERETT, AND VICINITY

CITY           SKY/WX    TMP DP  RH WIND       PRES   REMARKS
EVERETT        CLOUDY    58  53  84 E3        30.28S
BOEING FIELD   CLOUDY    62  55  77 NE5       30.27R
RENTON         CLOUDY    62  56  80 NW3       30.27R
SEATAC AIRPORT CLOUDY    60  56  86 CALM      30.28R
JBLM-MCCHORD   CLOUDY    60  57  89 SE2       30.27R
PUYALLUP       CLOUDY    59  55  88 CALM      30.28R
BREMERTON      CLOUDY    57  55  94 E3        30.30R
JBLM-FT LEWIS  CLOUDY    59  56  91 SW1       30.26R
TACOMA NARROWS PTSUNNY   59  53  80 CALM      30.28R
$$

WAZ001-503-506-510-514-515-231600-
NORTH INTERIOR

CITY           SKY/WX    TMP DP  RH WIND       PRES   REMARKS
BELLINGHAM     MOSUNNY   60  54  80 S9        30.24S
FRIDAY HARBOR  CLOUDY    58  53  84 CALM      30.25S
EASTSOUND      MOSUNNY   59  54  82 S9        30.22S
PORT ANGELES   MOSUNNY   62  51  67 W6        30.26S
EDIZ HOOK      FAIR      60  51  73 W12       30.26S
PORT TOWNSEND  CLOUDY    59  55  88 CALM      30.27R
NAS WHIDBEY    PTSUNNY   59  52  77 W6        30.30S
ARLINGTON      CLOUDY    57  48  72 NE3       30.29S
BURLINGTON     MOSUNNY   59  55  88 S6        30.26S
$$

WAZ020-022-039-040-504-511-512-231600-
SOUTHWEST INTERIOR

CITY           SKY/WX    TMP DP  RH WIND       PRES   REMARKS
SHELTON        CLOUDY    58  55  90 W3        30.25R
OLYMPIA        PTSUNNY   60  54  80 SW5       30.27R
CHEHALIS       CLOUDY    61  57  88 CALM      30.27S
KELSO          CLOUDY    61  55  81 VRB3      30.28S
VANCOUVER      CLOUDY    61  54  77 VRB5      30.27R
SCAPPOOSE, OR  CLOUDY    62  53  72 NW5       30.26S
PORTLAND, OR   CLOUDY    62  54  74 NW5       30.27R
$$

WAZ021-516-517-231600-
WASHINGTON COAST

CITY           SKY/WX    TMP DP  RH WIND       PRES   REMARKS
FORKS          CLOUDY    58  56  93 CALM      30.28R
HOQUIAM        NOT AVBL
ASTORIA, OR    CLOUDY    61  57  87 SE3       30.27S
$$

WAZ019-023-024-040-518-519-231600-
CASCADE MOUNTAINS AND COLUMBIA GORGE

CITY           SKY/WX    TMP DP  RH WIND       PRES   REMARKS
STAMPEDE PASS  CLOUDY    47  45  93 VRB5      30.27R
TROUTDALE, OR  CLOUDY    62  56  80 CALM      30.27R
THE DALLES, OR SUNNY     67  51  56 NW10      30.20R
$$

WAZ026-027-041>044-520-521-231600-
EAST SLOPES

CITY           SKY/WX    TMP DP  RH WIND       PRES   REMARKS
OMAK           SUNNY     62  44  51 NE5       30.15R
WENATCHEE      SUNNY     64  46  52 NW6       30.16R
ELLENSBURG     SUNNY     63  48  58 NW15G21   30.18S
YAKIMA         SUNNY     63  45  51 CALM      30.19S
$$

WAZ028-034-035-231600-
COLUMBIA BASIN

CITY           SKY/WX    TMP DP  RH WIND       PRES   REMARKS
EPHRATA        MOSUNNY   68  44  42 NW6       30.14S
MOSES LAKE     MOSUNNY   63  49  60 SW3       30.16R
PASCO          MOSUNNY   66  51  58 S5        30.18R
HERMISTON, OR  MOSUNNY   66  49  54 W12       30.19R
$$

WAZ036>038-231600-
NORTHEAST WASHINGTON

CITY           SKY/WX    TMP DP  RH WIND       PRES   REMARKS
SPOKANE GEIGER MOSUNNY   57  46  66 S12       30.18R
SPOKANE FELTS  SUNNY     60  48  64 SW9       30.19R
FAIRCHILD AFB  SUNNY     57  47  68 SW9       30.17R
COEURDALENE,ID SUNNY     59  48  67 S9        30.16S
DEER PARK      MOSUNNY   54  50  86 VRB6      30.19R
$$

WAZ029>033-231600-
SOUTHEAST WASHINGTON

CITY           SKY/WX    TMP DP  RH WIND       PRES   REMARKS
PULLMAN        SUNNY     60  47  61 W9        30.22S
LEWISTON, ID   MOSUNNY   66  47  50 CALM      30.19R
WALLA WALLA    MOSUNNY   64  48  56 SW14      30.20S
PENDLETON, OR  MOSUNNY   60  45  57 SE6       30.21R
$$



USA.gov is the U.S. government's official web portal to all federal, state and local government web resources and services.